Location: Prague
(50.0830°N, 14.4670°E)
Time: 19:47:11
(UTC+02:00)

ISS - Pass Details

Date: 27 September 2021
Orbit: 417 x 423 km, 51.6° (Epoch: 28 October)

Event Time Altitude Azimuth Distance (km) Brightness Sun altitude
Rises 20:10:11 0° 280° (W) 2,365 2.1 -13.8°
Reaches altitude 10° 20:12:17 10° 283° (WNW) 1,502 0.5 -14.1°
Maximum altitude 20:15:39 70° 8° (N) 451 -3.7 -14.6°
Enters shadow 20:17:06 31° 84° (E) 767 -3.0 -14.8°
